Welcome to our new website - Welkom op onze vernieuwde website - Bienvenue sur notre nouveau site web - Willkommen auf unserer neuen Website
Check our progress frequently. Prüfen Sie unsere Fortschritte regelmäßig. Consultez notre progression fréquemment. Komt u straks nog eens terug


Hej. Vi har købt ny vejrstation, og er ved at bygge en helt ny vejrside.
Kom snart tilbage og følg udviklingen.
Du kan også komme med kommentarer eller evt. ønsker via "Kontakt" i bunden.



Webcam more information Webcam


Rain radar more information rain snow radar


Visit our other weather sites:

Template documentation
and downloads

And another site



Select another period ( hide this area )

Units Period Custom range Directly to
Metric English Both
Daily Weekly Monthly Yearly
use both date-selectors for a custom range
previous Day
With this date

WeatherUnderground graphs for this period ( click here )


Daily Summary for Sunday 23 February 2020
Time Temp. ( °C ) Dew pt. ( °C ) Wind ( km/h ) from Gust ( km/h ) Pressure ( hPa ) Humid.( % ) Rainrate ( cm ) Solar ( W/m2 )
High5,5 1,4 56,2 West ( 1087/2592 ) 59,5 1003,3 80 - 49
Average4,5 0,8 25,9 WSW #40/100 39,9 1002,6 77 - 22 #15/100
Low3,9 0,3 11,1   22,5 1001,9 73 -  
Daily Tabular details for Sunday 23 February 2020
Time Temp. ( °C ) Dew pt. ( °C ) Wind ( km/h ) from Gust ( km/h ) Pressure ( hPa ) Humid.( % ) Rainrate ( cm ) Solar ( W/m2 )
00:00 5,5 1,2 25,9 WSW 30,6 1002,3 74 - -
00:05 5,5 1,2 28,8 WSW 45,1 1002,3 74 - -
00:10 5,5 1,2 19,5 WSW 35,4 1002,3 74 - -
00:15 5,4 1,1 45,1 West 46,7 1002,3 74 - -
00:20 5,5 1,0 56,2 WSW 56,3 1002,3 73 - -
00:25 5,5 1,0 16,3 WSW 40,2 1002,3 73 - -
00:30 5,4 0,9 30,6 WSW 53,1 1002,3 73 - -
00:35 5,4 1,1 24,1 WSW 33,8 1002,3 74 - -
00:40 5,5 1,2 35,2 WSW 51,5 1002,3 74 - -
00:45 5,5 1,0 25,9 West 49,9 1001,9 73 - -
00:50 5,4 0,9 53,3 West 54,7 1001,9 73 - -
00:55 5,4 0,9 24,1 West 56,3 1002,3 73 - -
01:00 5,3 0,9 25,9 West 45,1 1002,3 73 - -
01:05 5,3 0,9 25,9 WSW 51,5 1002,3 73 - -
01:10 5,2 0,8 16,3 SW 37,0 1002,3 73 - -
01:15 5,2 0,8 27,4 West 46,7 1002,3 73 - -
01:20 5,2 0,8 17,7 West 46,7 1002,3 73 - -
01:25 5,1 0,7 33,8 West 41,8 1002,3 73 - -
01:30 5,1 0,8 24,1 WSW 41,8 1002,3 74 - -
01:35 5,1 0,8 25,9 WSW 49,9 1002,3 74 - -
01:40 5,3 1,2 32,0 West 40,2 1002,3 75 - -
01:45 5,1 1,0 43,6 West 43,4 1002,3 75 - -
01:50 4,9 1,0 33,8 WSW 41,8 1002,3 76 - -
01:55 4,8 0,9 32,0 West 49,9 1002,6 76 - -
02:00 4,7 1,0 27,4 WSW 38,6 1002,6 77 - -
02:05 4,7 1,2 51,5 West 51,5 1002,6 78 - -
02:10 4,7 1,4 16,3 WSW 38,6 1002,6 79 - -
02:15 4,6 1,3 20,9 WNW 33,8 1002,3 79 - -
02:20 4,5 1,2 19,5 WNW 48,3 1002,3 79 - -
02:25 4,4 1,1 28,8 SW 33,8 1002,3 79 - -
02:30 4,4 1,3 33,8 WNW 38,6 1002,6 80 - -
02:35 4,5 1,2 30,6 WSW 51,5 1002,9 79 - -
02:40 4,6 1,3 16,3 SW 33,8 1002,9 79 - -
02:45 4,6 1,1 28,8 WSW 46,7 1002,9 78 - -
02:50 4,6 0,9 32,0 West 37,0 1002,6 77 - -
02:55 4,7 0,8 30,6 WSW 45,1 1002,6 76 - -
03:00 4,7 0,8 28,8 West 46,7 1002,6 76 - -
03:05 4,8 0,7 19,5 WSW 59,5 1002,6 75 - -
03:10 4,8 0,7 41,7 SW 54,7 1002,9 75 - -
03:15 4,6 0,7 43,6 West 54,7 1002,9 76 - -
03:20 4,3 0,6 48,3 West 49,9 1002,9 77 - -
03:25 4,2 0,7 35,2 WNW 49,9 1002,6 78 - -
03:30 4,0 0,5 40,4 SW 43,4 1002,6 78 - -
03:35 3,9 0,4 19,5 WNW 38,6 1002,9 78 - -
03:40 3,9 0,4 27,4 West 51,5 1002,9 78 - -
03:45 4,0 0,3 27,4 WSW 37,0 1002,9 77 - -
03:50 4,0 0,3 27,4 West 48,3 1002,9 77 - -
03:55 4,1 0,4 24,1 WNW 45,1 1002,6 77 - -
04:00 4,1 0,6 25,9 West 38,6 1002,6 78 - -
04:05 4,0 0,5 28,8 West 46,7 1002,9 78 - -
04:10 4,0 0,5 20,9 WSW 43,4 1002,9 78 - -
04:15 3,9 0,4 16,3 West 35,4 1002,6 78 - -
04:20 3,9 0,6 30,6 West 45,1 1002,9 79 - -
04:25 3,9 0,4 37,0 WSW 48,3 1002,9 78 - -
04:30 4,0 0,5 24,1 WSW 29,0 1002,9 78 - -
04:35 4,0 0,5 22,7 SW 37,0 1002,9 78 - -
04:40 4,1 0,6 28,8 West 30,6 1002,9 78 - -
04:45 4,2 0,7 14,3 West 30,6 1002,9 78 - -
04:50 4,3 0,8 25,9 West 38,6 1002,9 78 - -
04:55 4,4 0,7 16,3 WSW 35,4 1002,9 77 - -
05:00 4,4 0,7 25,9 West 37,0 1002,9 77 - -
05:05 4,4 0,7 16,3 West 33,8 1003,3 77 - -
05:10 4,5 0,6 20,9 WSW 35,4 1002,9 76 - -
05:15 4,6 0,7 16,3 WSW 38,6 1002,9 76 - -
05:20 4,5 0,6 28,8 SW 48,3 1002,9 76 - -
05:25 4,4 0,5 27,4 SW 38,6 1002,9 76 - -
05:30 4,4 0,5 19,5 West 33,8 1002,9 76 - -
05:35 4,3 0,4 19,5 SW 30,6 1002,9 76 - -
05:40 4,3 0,4 16,3 WSW 35,4 1002,9 76 - -
05:45 4,2 0,5 13,0 West 38,6 1002,9 77 - -
05:50 4,2 0,5 22,7 West 40,2 1002,6 77 - -
05:55 4,2 0,5 28,8 WNW 45,1 1002,9 77 - -
06:00 4,2 0,5 40,4 WSW 40,2 1002,9 77 - -
06:05 4,2 0,5 16,3 West 38,6 1002,9 77 - -
06:10 4,2 0,5 27,4 West 40,2 1002,9 77 - -
06:15 4,2 0,5 25,9 WSW 33,8 1002,9 77 - -
06:20 4,2 0,5 13,0 West 30,6 1002,6 77 - -
06:25 4,2 0,5 24,1 NW 29,0 1002,6 77 - -
06:30 4,3 0,6 24,1 WSW 37,0 1002,6 77 - -
06:35 4,3 0,6 22,7 SW 40,2 1002,6 77 - -
06:40 4,3 0,6 19,5 West 29,0 1002,6 77 - -
06:45 4,3 0,6 19,5 WSW 22,5 1002,6 77 - -
06:50 4,2 0,5 16,3 West 29,0 1002,6 77 - -
06:55 4,3 0,6 14,3 West 30,6 1002,9 77 - -
07:00 4,3 0,6 13,0 SW 25,7 1002,9 77 - -
07:05 4,3 0,6 30,6 West 30,6 1002,6 77 - 5
07:10 4,2 0,7 20,9 WSW 32,2 1002,6 78 - 5
07:15 4,2 0,7 30,6 WSW 32,2 1002,6 78 - 7
07:20 4,3 0,8 11,1 SSW 29,0 1002,6 78 - 7
07:25 4,3 0,6 25,9 WSW 30,6 1002,6 77 - 11
07:30 4,3 0,8 24,1 WSW 35,4 1002,6 78 - 12
07:35 4,3 0,8 14,3 WSW 32,2 1002,9 78 - 14
07:40 4,3 0,8 16,3 WSW 33,8 1002,6 78 - 18
07:45 4,3 0,8 22,7 West 32,2 1002,9 78 - 25
07:50 4,2 0,9 27,4 WSW 30,6 1002,6 79 - 28
07:55 4,2 0,9 13,0 WSW 29,0 1002,6 79 - 33
08:00 4,2 0,9 20,9 West 38,6 1002,9 79 - 37
08:05 4,3 1,0 20,9 WSW 37,0 1002,9 79 - 42
08:10 4,3 1,0 28,8 WSW 35,4 1002,9 79 - 44
08:15 4,4 1,1 17,7 West 27,4 1002,9 79 - 49
Daily Summary for Sunday 23 February 2020
Time Temp. ( °C ) Dew pt. ( °C ) Wind ( km/h ) from Gust ( km/h ) Pressure ( hPa ) Humid.( % ) Rainrate ( cm ) Solar ( W/m2 )
High5,5 1,4 56,2 West ( 1087/2592 ) 59,5 1003,3 80 - 49
Average4,5 0,8 25,9 WSW #40/100 39,9 1002,6 77 - 22 #15/100
Low3,9 0,3 11,1   22,5 1001,9 73 -  
Daily Tabular details for Sunday 23 February 2020
Time Temp. ( °C ) Dew pt. ( °C ) Wind ( km/h ) from Gust ( km/h ) Pressure ( hPa ) Humid.( % ) Rainrate ( cm ) Solar ( W/m2 )
00:00 5,5 1,2 25,9 WSW 30,6 1002,3 74 - -
00:05 5,5 1,2 28,8 WSW 45,1 1002,3 74 - -
00:10 5,5 1,2 19,5 WSW 35,4 1002,3 74 - -
00:15 5,4 1,1 45,1 West 46,7 1002,3 74 - -
00:20 5,5 1,0 56,2 WSW 56,3 1002,3 73 - -
00:25 5,5 1,0 16,3 WSW 40,2 1002,3 73 - -
00:30 5,4 0,9 30,6 WSW 53,1 1002,3 73 - -
00:35 5,4 1,1 24,1 WSW 33,8 1002,3 74 - -
00:40 5,5 1,2 35,2 WSW 51,5 1002,3 74 - -
00:45 5,5 1,0 25,9 West 49,9 1001,9 73 - -
00:50 5,4 0,9 53,3 West 54,7 1001,9 73 - -
00:55 5,4 0,9 24,1 West 56,3 1002,3 73 - -
01:00 5,3 0,9 25,9 West 45,1 1002,3 73 - -
01:05 5,3 0,9 25,9 WSW 51,5 1002,3 73 - -
01:10 5,2 0,8 16,3 SW 37,0 1002,3 73 - -
01:15 5,2 0,8 27,4 West 46,7 1002,3 73 - -
01:20 5,2 0,8 17,7 West 46,7 1002,3 73 - -
01:25 5,1 0,7 33,8 West 41,8 1002,3 73 - -
01:30 5,1 0,8 24,1 WSW 41,8 1002,3 74 - -
01:35 5,1 0,8 25,9 WSW 49,9 1002,3 74 - -
01:40 5,3 1,2 32,0 West 40,2 1002,3 75 - -
01:45 5,1 1,0 43,6 West 43,4 1002,3 75 - -
01:50 4,9 1,0 33,8 WSW 41,8 1002,3 76 - -
01:55 4,8 0,9 32,0 West 49,9 1002,6 76 - -
02:00 4,7 1,0 27,4 WSW 38,6 1002,6 77 - -
02:05 4,7 1,2 51,5 West 51,5 1002,6 78 - -
02:10 4,7 1,4 16,3 WSW 38,6 1002,6 79 - -
02:15 4,6 1,3 20,9 WNW 33,8 1002,3 79 - -
02:20 4,5 1,2 19,5 WNW 48,3 1002,3 79 - -
02:25 4,4 1,1 28,8 SW 33,8 1002,3 79 - -
02:30 4,4 1,3 33,8 WNW 38,6 1002,6 80 - -
02:35 4,5 1,2 30,6 WSW 51,5 1002,9 79 - -
02:40 4,6 1,3 16,3 SW 33,8 1002,9 79 - -
02:45 4,6 1,1 28,8 WSW 46,7 1002,9 78 - -
02:50 4,6 0,9 32,0 West 37,0 1002,6 77 - -
02:55 4,7 0,8 30,6 WSW 45,1 1002,6 76 - -
03:00 4,7 0,8 28,8 West 46,7 1002,6 76 - -
03:05 4,8 0,7 19,5 WSW 59,5 1002,6 75 - -
03:10 4,8 0,7 41,7 SW 54,7 1002,9 75 - -
03:15 4,6 0,7 43,6 West 54,7 1002,9 76 - -
03:20 4,3 0,6 48,3 West 49,9 1002,9 77 - -
03:25 4,2 0,7 35,2 WNW 49,9 1002,6 78 - -
03:30 4,0 0,5 40,4 SW 43,4 1002,6 78 - -
03:35 3,9 0,4 19,5 WNW 38,6 1002,9 78 - -
03:40 3,9 0,4 27,4 West 51,5 1002,9 78 - -
03:45 4,0 0,3 27,4 WSW 37,0 1002,9 77 - -
03:50 4,0 0,3 27,4 West 48,3 1002,9 77 - -
03:55 4,1 0,4 24,1 WNW 45,1 1002,6 77 - -
04:00 4,1 0,6 25,9 West 38,6 1002,6 78 - -
04:05 4,0 0,5 28,8 West 46,7 1002,9 78 - -
04:10 4,0 0,5 20,9 WSW 43,4 1002,9 78 - -
04:15 3,9 0,4 16,3 West 35,4 1002,6 78 - -
04:20 3,9 0,6 30,6 West 45,1 1002,9 79 - -
04:25 3,9 0,4 37,0 WSW 48,3 1002,9 78 - -
04:30 4,0 0,5 24,1 WSW 29,0 1002,9 78 - -
04:35 4,0 0,5 22,7 SW 37,0 1002,9 78 - -
04:40 4,1 0,6 28,8 West 30,6 1002,9 78 - -
04:45 4,2 0,7 14,3 West 30,6 1002,9 78 - -
04:50 4,3 0,8 25,9 West 38,6 1002,9 78 - -
04:55 4,4 0,7 16,3 WSW 35,4 1002,9 77 - -
05:00 4,4 0,7 25,9 West 37,0 1002,9 77 - -
05:05 4,4 0,7 16,3 West 33,8 1003,3 77 - -
05:10 4,5 0,6 20,9 WSW 35,4 1002,9 76 - -
05:15 4,6 0,7 16,3 WSW 38,6 1002,9 76 - -
05:20 4,5 0,6 28,8 SW 48,3 1002,9 76 - -
05:25 4,4 0,5 27,4 SW 38,6 1002,9 76 - -
05:30 4,4 0,5 19,5 West 33,8 1002,9 76 - -
05:35 4,3 0,4 19,5 SW 30,6 1002,9 76 - -
05:40 4,3 0,4 16,3 WSW 35,4 1002,9 76 - -
05:45 4,2 0,5 13,0 West 38,6 1002,9 77 - -
05:50 4,2 0,5 22,7 West 40,2 1002,6 77 - -
05:55 4,2 0,5 28,8 WNW 45,1 1002,9 77 - -
06:00 4,2 0,5 40,4 WSW 40,2 1002,9 77 - -
06:05 4,2 0,5 16,3 West 38,6 1002,9 77 - -
06:10 4,2 0,5 27,4 West 40,2 1002,9 77 - -
06:15 4,2 0,5 25,9 WSW 33,8 1002,9 77 - -
06:20 4,2 0,5 13,0 West 30,6 1002,6 77 - -
06:25 4,2 0,5 24,1 NW 29,0 1002,6 77 - -
06:30 4,3 0,6 24,1 WSW 37,0 1002,6 77 - -
06:35 4,3 0,6 22,7 SW 40,2 1002,6 77 - -
06:40 4,3 0,6 19,5 West 29,0 1002,6 77 - -
06:45 4,3 0,6 19,5 WSW 22,5 1002,6 77 - -
06:50 4,2 0,5 16,3 West 29,0 1002,6 77 - -
06:55 4,3 0,6 14,3 West 30,6 1002,9 77 - -
07:00 4,3 0,6 13,0 SW 25,7 1002,9 77 - -
07:05 4,3 0,6 30,6 West 30,6 1002,6 77 - 5
07:10 4,2 0,7 20,9 WSW 32,2 1002,6 78 - 5
07:15 4,2 0,7 30,6 WSW 32,2 1002,6 78 - 7
07:20 4,3 0,8 11,1 SSW 29,0 1002,6 78 - 7
07:25 4,3 0,6 25,9 WSW 30,6 1002,6 77 - 11
07:30 4,3 0,8 24,1 WSW 35,4 1002,6 78 - 12
07:35 4,3 0,8 14,3 WSW 32,2 1002,9 78 - 14
07:40 4,3 0,8 16,3 WSW 33,8 1002,6 78 - 18
07:45 4,3 0,8 22,7 West 32,2 1002,9 78 - 25
07:50 4,2 0,9 27,4 WSW 30,6 1002,6 79 - 28
07:55 4,2 0,9 13,0 WSW 29,0 1002,6 79 - 33
08:00 4,2 0,9 20,9 West 38,6 1002,9 79 - 37
08:05 4,3 1,0 20,9 WSW 37,0 1002,9 79 - 42
08:10 4,3 1,0 28,8 WSW 35,4 1002,9 79 - 44
08:15 4,4 1,1 17,7 West 27,4 1002,9 79 - 49

Download your copy of this data-set  here

Our weather-data as stored at Weather Underground. Script developed by Jim McMurry. Adapted for the template by Leuven-Template.eu

You find our weather info also at:

European Weather Network

Weather Underground

European Weather Network

Equipment we use:

Weather-station
Davis VP2

Weather-program
Weather Display

Davis VP2

Weather Display



Hej. Vi har købt ny vejrstation, og er ved at bygge en helt ny vejrside.
Kom snart tilbage og følg udviklingen.
Du kan også komme med kommentarer eller evt. ønsker via "Kontakt" i bunden.